Location: Les Salelles
(44.4192°N, 4.1044°E)
Time: 16:56:57
(UTC+00:00)

Cosmos 1092 Rocket - Pass Details

Date: 20 January 2021
Orbit: 954 x 995 km, 83.0° (Epoch: 25 February)

Event Time Altitude Azimuth Distance (km) Brightness Sun altitude
Rises 18:36:06 0° 182° (S) 3,657 7.1 -21.1°
Reaches altitude 10° 18:38:36 10° 181° (S) 2,708 6.4 -21.5°
Maximum altitude 18:44:48 81° 96° (E) 983 3.8 -22.6°
Drops below altitude 10° 18:50:59 10° 10° (N) 2,701 6.2 -23.7°
Sets 18:53:29 0° 10° (N) 3,648 6.9 -24.1°
